Location: Eaton Estates
(41.3089°N, 82.0057°W)
Time: 13:21:51
(UTC+00:00)

IDEFIX/ARIANE 42P - Pass Details

Date: 17 June 2021
Orbit: 784 x 803 km, 98.4° (Epoch: 30 July)

Event Time Altitude Azimuth Distance (km) Brightness Sun altitude
Rises 08:09:10 0° 13° (NNE) 3,315 7.0 -15.4°
Reaches altitude 10° 08:11:31 10° 14° (NNE) 2,378 6.1 -15.1°
Maximum altitude 08:16:47 85° 103° (ESE) 803 2.6 -14.5°
Enters shadow 08:20:55 17° 192° (SSW) 1,927 4.0 -14.0°
